Location: Lombard
(41.8800°N, 88.0080°W)
Time: 12:05:05
(UTC-05:00)

AAUSAT CUBESAT 2 - Visible Passes

Search period start: 17 May 2022 00:00
Search period end: 27 May 2022 00:00
Orbit: 568 x 582 km, 97.5° (Epoch: 16 May)

Date Brightness Start Highest point End Pass type
(mag) Time Alt. Az. Time Alt. Az. Time Alt. Az.
20 May ? 04:30:49 10° E 04:31:23 10° E 04:31:57 10° E visible
21 May ? 04:33:36 10° ENE 04:34:57 11° E 04:36:16 10° ESE visible
22 May ? 04:36:42 10° ENE 04:38:29 13° E 04:40:16 10° ESE visible
23 May ? 04:39:54 10° ENE 04:42:02 14° E 04:44:08 10° ESE visible
24 May ? 04:43:09 10° NE 04:45:32 15° E 04:47:56 10° SE visible
25 May ? 04:46:25 10° NE 04:49:03 16° E 04:51:40 10° SE visible
